Time,TemperatureF,DewpointF,PressureIn,WindDirection,WindDirectionDegrees,WindSpeedMPH,WindSpeedGustMPH,Humidity,HourlyPrecipIn,Conditions,Clouds,dailyrainin,SoftwareType,DateUTC
2013-02-23 00:01:00,19.0,13.0,-100.00,WSW,242,6.0,10.0,77,-99.99,,,-99.99,,2013-02-23 07:01:00,
2013-02-23 00:11:00,19.0,13.0,-100.00,WSW,242,6.0,10.0,77,-99.99,,,-99.99,,2013-02-23 07:11:00,
2013-02-23 00:21:00,20.0,13.0,-100.00,WNW,284,11.0,15.0,72,-99.99,,,-99.99,,2013-02-23 07:21:00,
2013-02-23 00:31:00,20.0,13.0,-100.00,WNW,284,11.0,15.0,72,-99.99,,,-99.99,,2013-02-23 07:31:00,
2013-02-23 00:41:00,20.0,13.0,-100.00,West,271,11.0,14.0,72,-99.99,,,-99.99,,2013-02-23 07:41:00,
2013-02-23 00:51:00,20.0,13.0,-100.00,West,271,11.0,14.0,72,-99.99,,,-99.99,,2013-02-23 07:51:00,
2013-02-23 01:01:00,20.0,13.0,-100.00,West,271,11.0,14.0,72,-99.99,,,-99.99,,2013-02-23 08:01:00,
2013-02-23 01:11:00,21.0,13.0,-100.00,West,277,13.0,16.0,70,-99.99,,,-99.99,,2013-02-23 08:11:00,
2013-02-23 01:21:00,21.0,13.0,-100.00,West,277,13.0,16.0,70,-99.99,,,-99.99,,2013-02-23 08:21:00,
2013-02-23 01:31:00,21.0,13.0,-100.00,West,276,13.0,18.0,69,-99.99,,,-99.99,,2013-02-23 08:31:00,
2013-02-23 01:41:00,21.0,13.0,-100.00,West,281,11.0,11.0,69,-99.99,,,-99.99,,2013-02-23 08:41:00,
2013-02-23 01:52:00,21.0,13.0,-100.00,West,281,11.0,11.0,69,-99.99,,,-99.99,,2013-02-23 08:52:00,
2013-02-23 02:01:00,22.0,13.0,-100.00,West,280,11.0,16.0,67,-99.99,,,-99.99,,2013-02-23 09:01:00,
2013-02-23 02:11:00,22.0,13.0,-100.00,WNW,288,10.0,11.0,68,-99.99,,,-99.99,,2013-02-23 09:11:00,
2013-02-23 02:20:00,21.0,13.0,-100.00,West,269,9.0,11.0,69,-99.99,,,-99.99,,2013-02-23 09:20:00,
2013-02-23 02:21:00,21.0,13.0,-100.00,WNW,284,9.0,12.0,68,-99.99,,,-99.99,,2013-02-23 09:21:00,
2013-02-23 02:31:00,21.0,13.0,-100.00,WNW,284,9.0,12.0,68,-99.99,,,-99.99,,2013-02-23 09:31:00,
2013-02-23 02:41:00,21.0,13.0,-100.00,West,269,9.0,11.0,69,-99.99,,,-99.99,,2013-02-23 09:41:00,
2013-02-23 02:51:00,21.0,13.0,-100.00,West,269,9.0,11.0,69,-99.99,,,-99.99,,2013-02-23 09:51:00,
2013-02-23 03:01:00,21.0,13.0,-100.00,West,269,9.0,11.0,69,-99.99,,,-99.99,,2013-02-23 10:01:00,
2013-02-23 03:11:00,21.0,13.0,-100.00,West,269,9.0,11.0,69,-99.99,,,-99.99,,2013-02-23 10:11:00,
2013-02-23 03:31:00,21.0,12.0,-100.00,West,279,13.0,15.0,67,-99.99,,,-99.99,,2013-02-23 10:31:00,
2013-02-23 03:41:00,22.0,13.0,-100.00,West,276,13.0,16.0,65,-99.99,,,-99.99,,2013-02-23 10:41:00,
2013-02-23 03:51:00,22.0,13.0,-100.00,West,276,13.0,16.0,65,-99.99,,,-99.99,,2013-02-23 10:51:00,
2013-02-23 04:02:00,22.0,12.0,-100.00,West,280,11.0,18.0,66,-99.99,,,-99.99,,2013-02-23 11:02:00,
2013-02-23 04:11:00,25.0,12.0,-100.00,WSW,245,17.0,23.0,57,-99.99,,,-99.99,,2013-02-23 11:11:00,
2013-02-23 04:21:00,25.0,12.0,-100.00,SW,236,19.0,26.0,56,-99.99,,,-99.99,,2013-02-23 11:21:00,
2013-02-23 04:32:00,25.0,12.0,-100.00,SW,236,19.0,26.0,56,-99.99,,,-99.99,,2013-02-23 11:32:00,
2013-02-23 04:41:00,25.0,12.0,-100.00,WSW,248,18.0,28.0,55,-99.99,,,-99.99,,2013-02-23 11:41:00,
2013-02-23 04:52:00,25.0,12.0,-100.00,WSW,248,21.0,29.0,55,-99.99,,,-99.99,,2013-02-23 11:52:00,
2013-02-23 05:01:00,24.0,12.0,-100.00,WSW,257,16.0,25.0,61,-99.99,,,-99.99,,2013-02-23 12:01:00,
2013-02-23 05:11:00,24.0,12.0,-100.00,WSW,257,16.0,25.0,61,-99.99,,,-99.99,,2013-02-23 12:11:00,
2013-02-23 05:21:00,24.0,12.0,-100.00,West,263,16.0,23.0,59,-99.99,,,-99.99,,2013-02-23 12:21:00,
2013-02-23 05:32:00,25.0,12.0,-100.00,West,265,18.0,25.0,55,-99.99,,,-99.99,,2013-02-23 12:32:00,
2013-02-23 05:41:00,25.0,12.0,-100.00,West,267,14.0,22.0,56,-99.99,,,-99.99,,2013-02-23 12:41:00,
2013-02-23 05:52:00,25.0,12.0,-100.00,West,267,14.0,22.0,56,-99.99,,,-99.99,,2013-02-23 12:52:00,
2013-02-23 06:01:00,23.0,12.0,-100.00,West,278,5.0,10.0,60,-99.99,,,-99.99,,2013-02-23 13:01:00,
2013-02-23 06:11:00,23.0,12.0,-100.00,West,278,5.0,10.0,60,-99.99,,,-99.99,,2013-02-23 13:11:00,
2013-02-23 06:22:00,23.0,12.0,-100.00,West,278,5.0,10.0,60,-99.99,,,-99.99,,2013-02-23 13:22:00,
2013-02-23 06:31:00,24.0,13.0,-100.00,West,261,12.0,16.0,62,-99.99,,,-99.99,,2013-02-23 13:31:00,
2013-02-23 06:42:00,23.0,13.0,-100.00,West,270,18.0,23.0,65,-99.99,,,-99.99,,2013-02-23 13:42:00,
2013-02-23 06:52:00,23.0,13.0,-100.00,West,270,18.0,23.0,65,-99.99,,,-99.99,,2013-02-23 13:52:00,
2013-02-23 07:01:00,24.0,13.0,-100.00,West,271,15.0,23.0,61,-99.99,,,-99.99,,2013-02-23 14:01:00,
2013-02-23 07:11:00,24.0,13.0,-100.00,West,271,15.0,23.0,61,-99.99,,,-99.99,,2013-02-23 14:11:00,
2013-02-23 07:21:00,26.0,15.0,-100.00,West,261,19.0,32.0,60,-99.99,,,-99.99,,2013-02-23 14:21:00,
2013-02-23 07:32:00,26.0,15.0,-100.00,West,261,19.0,32.0,60,-99.99,,,-99.99,,2013-02-23 14:32:00,
2013-02-23 07:41:00,26.0,14.0,-100.00,West,265,16.0,23.0,60,-99.99,,,-99.99,,2013-02-23 14:41:00,
2013-02-23 07:52:00,26.0,14.0,-100.00,West,265,16.0,23.0,60,-99.99,,,-99.99,,2013-02-23 14:52:00,
2013-02-23 08:01:00,26.0,14.0,-100.00,WSW,239,15.0,18.0,59,-99.99,,,-99.99,,2013-02-23 15:01:00,
2013-02-23 08:11:00,26.0,14.0,-100.00,WSW,239,15.0,18.0,59,-99.99,,,-99.99,,2013-02-23 15:11:00,
2013-02-23 08:21:00,26.0,14.0,-100.00,WSW,239,15.0,18.0,59,-99.99,,,-99.99,,2013-02-23 15:21:00,
2013-02-23 08:31:00,25.0,13.0,-100.00,West,274,18.0,23.0,59,-99.99,,,-99.99,,2013-02-23 15:31:00,
2013-02-23 08:41:00,25.0,14.0,-100.00,WSW,258,16.0,24.0,62,-99.99,,,-99.99,,2013-02-23 15:41:00,
2013-02-23 08:51:00,25.0,14.0,-100.00,WSW,258,16.0,24.0,62,-99.99,,,-99.99,,2013-02-23 15:51:00,
2013-02-23 09:01:00,29.0,14.0,-100.00,WSW,255,20.0,29.0,53,-99.99,,,-99.99,,2013-02-23 16:01:00,
2013-02-23 09:11:00,28.0,14.0,-100.00,WSW,250,14.0,25.0,54,-99.99,,,-99.99,,2013-02-23 16:11:00,
2013-02-23 09:21:00,28.0,14.0,-100.00,WSW,250,14.0,25.0,54,-99.99,,,-99.99,,2013-02-23 16:21:00,
2013-02-23 09:31:00,29.0,15.0,-100.00,WSW,257,17.0,28.0,56,-99.99,,,-99.99,,2013-02-23 16:31:00,
2013-02-23 09:42:00,29.0,15.0,-100.00,West,267,18.0,29.0,56,-99.99,,,-99.99,,2013-02-23 16:42:00,
2013-02-23 09:51:00,28.0,17.0,-100.00,West,260,13.0,21.0,61,-99.99,,,-99.99,,2013-02-23 16:51:00,
2013-02-23 10:01:00,28.0,16.0,-100.00,West,262,17.0,29.0,59,-99.99,,,-99.99,,2013-02-23 17:01:00,
2013-02-23 10:11:00,28.0,17.0,-100.00,West,260,16.0,27.0,62,-99.99,,,-99.99,,2013-02-23 17:11:00,
2013-02-23 10:21:00,28.0,17.0,-100.00,West,260,16.0,27.0,62,-99.99,,,-99.99,,2013-02-23 17:21:00,
2013-02-23 10:31:00,28.0,17.0,-100.00,West,260,16.0,27.0,62,-99.99,,,-99.99,,2013-02-23 17:31:00,
2013-02-23 10:41:00,28.0,17.0,-100.00,West,260,16.0,27.0,62,-99.99,,,-99.99,,2013-02-23 17:41:00,
2013-02-23 10:52:00,25.0,24.0,-100.00,West,265,21.0,26.0,94,-99.99,,,-99.99,,2013-02-23 17:52:00,
2013-02-23 11:01:00,25.0,24.0,-100.00,West,265,21.0,26.0,94,-99.99,,,-99.99,,2013-02-23 18:01:00,
2013-02-23 11:12:00,26.0,22.0,-100.00,SW,236,22.0,29.0,85,-99.99,,,-99.99,,2013-02-23 18:12:00,
2013-02-23 11:21:00,27.0,22.0,-100.00,WSW,241,17.0,23.0,81,-99.99,,,-99.99,,2013-02-23 18:21:00,
2013-02-23 11:31:00,26.0,22.0,-100.00,West,267,18.0,27.0,85,-99.99,,,-99.99,,2013-02-23 18:31:00,
2013-02-23 11:41:00,24.0,20.0,-100.00,West,279,15.0,19.0,84,-99.99,,,-99.99,,2013-02-23 18:41:00,
2013-02-23 11:51:00,23.0,20.0,-100.00,WSW,249,15.0,22.0,88,-99.99,,,-99.99,,2013-02-23 18:51:00,
2013-02-23 12:01:00,24.0,19.0,-100.00,WSW,245,18.0,22.0,80,-99.99,,,-99.99,,2013-02-23 19:01:00,
2013-02-23 12:11:00,24.0,19.0,-100.00,WSW,245,18.0,22.0,80,-99.99,,,-99.99,,2013-02-23 19:11:00,
2013-02-23 12:21:00,24.0,19.0,-100.00,West,279,9.0,18.0,81,-99.99,,,-99.99,,2013-02-23 19:21:00,
2013-02-23 12:32:00,23.0,18.0,-100.00,WNW,291,14.0,22.0,79,-99.99,,,-99.99,,2013-02-23 19:32:00,
2013-02-23 12:41:00,22.0,15.0,-100.00,WNW,294,17.0,23.0,71,-99.99,,,-99.99,,2013-02-23 19:41:00,
2013-02-23 12:51:00,22.0,15.0,-100.00,WNW,294,17.0,23.0,71,-99.99,,,-99.99,,2013-02-23 19:51:00,
2013-02-23 13:01:00,22.0,12.0,-100.00,WNW,286,16.0,25.0,64,-99.99,,,-99.99,,2013-02-23 20:01:00,
2013-02-23 13:11:00,22.0,11.0,-100.00,WNW,291,22.0,32.0,63,-99.99,,,-99.99,,2013-02-23 20:11:00,
2013-02-23 13:21:00,22.0,11.0,-100.00,WNW,292,22.0,26.0,61,-99.99,,,-99.99,,2013-02-23 20:21:00,
2013-02-23 13:31:00,22.0,9.0,-100.00,NW,315,27.0,37.0,58,-99.99,,,-99.99,,2013-02-23 20:31:00,
2013-02-23 13:41:00,21.0,9.0,-100.00,NW,323,24.0,37.0,58,-99.99,,,-99.99,,2013-02-23 20:41:00,
2013-02-23 13:52:00,21.0,6.0,-100.00,NNW,330,25.0,37.0,52,-99.99,,,-99.99,,2013-02-23 20:52:00,
2013-02-23 14:01:00,22.0,7.0,-100.00,NW,312,21.0,26.0,53,-99.99,,,-99.99,,2013-02-23 21:01:00,
2013-02-23 14:11:00,22.0,7.0,-100.00,NW,312,21.0,26.0,53,-99.99,,,-99.99,,2013-02-23 21:11:00,
2013-02-23 14:21:00,22.0,9.0,-100.00,WNW,282,18.0,22.0,55,-99.99,,,-99.99,,2013-02-23 21:21:00,
2013-02-23 14:31:00,22.0,9.0,-100.00,WNW,282,18.0,22.0,55,-99.99,,,-99.99,,2013-02-23 21:31:00,
2013-02-23 14:41:00,23.0,11.0,-100.00,WNW,293,12.0,18.0,58,-99.99,,,-99.99,,2013-02-23 21:41:00,
2013-02-23 14:51:00,23.0,11.0,-100.00,WNW,293,12.0,18.0,58,-99.99,,,-99.99,,2013-02-23 21:51:00,
2013-02-23 15:01:00,22.0,10.0,-100.00,NW,306,19.0,21.0,60,-99.99,,,-99.99,,2013-02-23 22:01:00,
2013-02-23 15:11:00,22.0,10.0,-100.00,NW,306,19.0,21.0,60,-99.99,,,-99.99,,2013-02-23 22:11:00,
2013-02-23 15:21:00,22.0,10.0,-100.00,NW,306,19.0,21.0,60,-99.99,,,-99.99,,2013-02-23 22:21:00,
2013-02-23 15:31:00,22.0,11.0,-100.00,WNW,298,13.0,15.0,62,-99.99,,,-99.99,,2013-02-23 22:31:00,
2013-02-23 15:41:00,23.0,13.0,-100.00,NNW,336,5.0,10.0,64,-99.99,,,-99.99,,2013-02-23 22:41:00,
2013-02-23 15:51:00,23.0,13.0,-100.00,NNW,336,5.0,10.0,64,-99.99,,,-99.99,,2013-02-23 22:51:00,
2013-02-23 16:01:00,22.0,14.0,-100.00,NNW,330,4.0,7.0,69,-99.99,,,-99.99,,2013-02-23 23:01:00,
2013-02-23 16:11:00,22.0,14.0,-100.00,NNW,330,4.0,7.0,69,-99.99,,,-99.99,,2013-02-23 23:11:00,
2013-02-23 16:21:00,22.0,13.0,-100.00,WNW,293,4.0,14.0,68,-99.99,,,-99.99,,2013-02-23 23:21:00,
2013-02-23 16:31:00,22.0,13.0,-100.00,WNW,293,4.0,14.0,68,-99.99,,,-99.99,,2013-02-23 23:31:00,
2013-02-23 16:41:00,21.0,15.0,-100.00,NE,41,4.0,7.0,79,-99.99,,,-99.99,,2013-02-23 23:41:00,
2013-02-23 16:52:00,21.0,15.0,-100.00,NE,41,4.0,7.0,79,-99.99,,,-99.99,,2013-02-23 23:52:00,
2013-02-23 17:01:00,21.0,13.0,-100.00,NNW,345,4.0,7.0,73,-99.99,,,-99.99,,2013-02-24 00:01:00,
2013-02-23 17:11:00,21.0,13.0,-100.00,NNW,345,4.0,7.0,73,-99.99,,,-99.99,,2013-02-24 00:11:00,
2013-02-23 17:21:00,20.0,15.0,-100.00,NW,305,10.0,12.0,81,-99.99,,,-99.99,,2013-02-24 00:21:00,
2013-02-23 17:31:00,19.0,14.0,-100.00,NW,305,12.0,16.0,81,-99.99,,,-99.99,,2013-02-24 00:31:00,
2013-02-23 17:42:00,19.0,14.0,-100.00,NW,313,9.0,15.0,81,-99.99,,,-99.99,,2013-02-24 00:42:00,
2013-02-23 17:52:00,19.0,14.0,-100.00,NW,313,9.0,15.0,81,-99.99,,,-99.99,,2013-02-24 00:52:00,
2013-02-23 18:01:00,18.0,14.0,-100.00,WNW,295,11.0,13.0,81,-99.99,,,-99.99,,2013-02-24 01:01:00,
2013-02-23 18:11:00,18.0,14.0,-100.00,WNW,295,11.0,13.0,81,-99.99,,,-99.99,,2013-02-24 01:11:00,
2013-02-23 18:21:00,18.0,14.0,-100.00,West,272,11.0,13.0,84,-99.99,,,-99.99,,2013-02-24 01:21:00,
2013-02-23 18:31:00,18.0,14.0,-100.00,West,272,11.0,13.0,84,-99.99,,,-99.99,,2013-02-24 01:31:00,
2013-02-23 18:41:00,19.0,9.0,-100.00,NW,307,15.0,25.0,65,-99.99,,,-99.99,,2013-02-24 01:41:00,
2013-02-23 18:51:00,19.0,9.0,-100.00,NW,307,15.0,25.0,65,-99.99,,,-99.99,,2013-02-24 01:51:00,
2013-02-23 19:01:00,18.0,10.0,-100.00,West,275,7.0,19.0,70,-99.99,,,-99.99,,2013-02-24 02:01:00,
2013-02-23 19:11:00,18.0,10.0,-100.00,West,275,7.0,19.0,70,-99.99,,,-99.99,,2013-02-24 02:11:00,
2013-02-23 19:21:00,18.0,11.0,-100.00,WNW,290,15.0,19.0,74,-99.99,,,-99.99,,2013-02-24 02:21:00,
2013-02-23 19:31:00,18.0,11.0,-100.00,WNW,290,15.0,19.0,74,-99.99,,,-99.99,,2013-02-24 02:31:00,
2013-02-23 19:41:00,18.0,12.0,-100.00,WNW,297,10.0,12.0,76,-99.99,,,-99.99,,2013-02-24 02:41:00,
2013-02-23 19:52:00,18.0,12.0,-100.00,WNW,297,10.0,12.0,76,-99.99,,,-99.99,,2013-02-24 02:52:00,
2013-02-23 20:01:00,18.0,11.0,-100.00,WNW,282,13.0,20.0,75,-99.99,,,-99.99,,2013-02-24 03:01:00,
2013-02-23 20:11:00,18.0,11.0,-100.00,NW,307,21.0,32.0,73,-99.99,,,-99.99,,2013-02-24 03:11:00,
2013-02-23 20:21:00,18.0,11.0,-100.00,NW,313,17.0,21.0,71,-99.99,,,-99.99,,2013-02-24 03:21:00,
2013-02-23 20:31:00,18.0,11.0,-100.00,NW,313,17.0,21.0,71,-99.99,,,-99.99,,2013-02-24 03:31:00,
2013-02-23 20:42:00,18.0,11.0,-100.00,NW,313,17.0,21.0,71,-99.99,,,-99.99,,2013-02-24 03:42:00,
2013-02-23 20:52:00,18.0,11.0,-100.00,NW,316,18.0,22.0,74,-99.99,,,-99.99,,2013-02-24 03:52:00,
2013-02-23 21:01:00,18.0,11.0,-100.00,NW,316,16.0,23.0,74,-99.99,,,-99.99,,2013-02-24 04:01:00,
2013-02-23 21:11:00,18.0,11.0,-100.00,NW,316,16.0,23.0,74,-99.99,,,-99.99,,2013-02-24 04:11:00,
2013-02-23 21:21:00,18.0,11.0,-100.00,NW,316,16.0,23.0,74,-99.99,,,-99.99,,2013-02-24 04:21:00,
2013-02-23 21:31:00,17.0,12.0,-100.00,NW,307,8.0,11.0,80,-99.99,,,-99.99,,2013-02-24 04:31:00,
2013-02-23 21:41:00,16.0,14.0,-100.00,NW,310,8.0,11.0,90,-99.99,,,-99.99,,2013-02-24 04:41:00,
2013-02-23 21:51:00,17.0,15.0,-100.00,WNW,282,8.0,9.0,92,-99.99,,,-99.99,,2013-02-24 04:51:00,
2013-02-23 22:01:00,17.0,15.0,-100.00,West,278,7.0,14.0,92,-99.99,,,-99.99,,2013-02-24 05:01:00,
2013-02-23 22:11:00,17.0,15.0,-100.00,West,278,7.0,14.0,92,-99.99,,,-99.99,,2013-02-24 05:11:00,
2013-02-23 22:21:00,17.0,12.0,-100.00,NW,305,13.0,19.0,80,-99.99,,,-99.99,,2013-02-24 05:21:00,
2013-02-23 22:32:00,17.0,13.0,-100.00,WNW,283,13.0,19.0,81,-99.99,,,-99.99,,2013-02-24 05:32:00,
2013-02-23 22:41:00,17.0,13.0,-100.00,WNW,283,13.0,19.0,81,-99.99,,,-99.99,,2013-02-24 05:41:00,
2013-02-23 22:52:00,17.0,12.0,-100.00,East,89,7.0,14.0,79,-99.99,,,-99.99,,2013-02-24 05:52:00,
2013-02-23 23:01:00,17.0,12.0,-100.00,WNW,299,2.0,5.0,81,-99.99,,,-99.99,,2013-02-24 06:01:00,
2013-02-23 23:11:00,17.0,13.0,-100.00,South,177,3.0,6.0,82,-99.99,,,-99.99,,2013-02-24 06:11:00,
2013-02-23 23:21:00,17.0,13.0,-100.00,NW,314,3.0,16.0,84,-99.99,,,-99.99,,2013-02-24 06:21:00,
2013-02-23 23:31:00,17.0,13.0,-100.00,East,90,7.0,16.0,83,-99.99,,,-99.99,,2013-02-24 06:31:00,
2013-02-23 23:41:00,17.0,13.0,-100.00,NW,314,7.0,13.0,82,-99.99,,,-99.99,,2013-02-24 06:41:00,
2013-02-23 23:52:00,17.0,12.0,-100.00,SW,221,3.0,6.0,82,-99.99,,,-99.99,,2013-02-24 06:52:00,